DELTA 1 DEB, 21438

Orbit data source: Space-Track

DELTA 1 DEB, 21438 is space debris in SSO originally from a launch on Thu, 12 Jun 1975 UTC launched from the Air Force Western Test Range (AFWTR). Debris objects in space refer to the collection of defunct objects orbiting the Earth. Examples of debris include non-operational satellites, rocket bodies, and fragments generated from explosions, collisions, or faulty payload assembly.

Loading next visibility...
Identifier
21438, 1975-052DW
Orbit
SSO
Country
Flag of USUS
Related business
Manufacturer
Unknown
Mission
Spacecraft
Bus & Motor
Unknown
Mass
Unknown
Launch date (UTC)
1975-06-12 (51 years ago)
Launch vehicle
Unknown
Launch site
Air Force Western Test Range (AFWTR)
Object type
Payload
Rocket body
Debris
Shape & HBR
Unknown shape, 0.1 m
Radar Cross Section
Small (<0.1 m²)

Expand to show TLE details & history
Last TLE update: 1 day ago

TLE from 1 day ago
0 DELTA 1 DEB
1 21438U 75052DW  26126.31221692  .00000183  00000-0  46399-3 0  9996
2 21438  99.7279  43.4572 0081366  18.9870 106.2137 13.31039437698675
Epoch: 2026-05-06T07:29Z
TLE epoch observation values (Epoch: 2026-05-06T07:29:35.541Z)
Latitude
52.88823°
Longitude
-100.08727°
Altitude
1,168.91 km
Speed
7.265 km/s
True Right ascension
15h 45m 56s
True Declination
52° 43' 54"
Sunlit
Object was in daylight at epoch
Visualization orbit readout
Latitude
Unknown
Longitude
Unknown
Altitude
Unknown
Speed
Unknown
Apparent Right ascension
Unknown
Apparent Declination
Unknown
Sunlit
N/A
Visualization observer readout
Local Sidereal Time
19:09:22
Azimuth
Unknown
Elevation
Unknown
Doppler factor
Unknown
Orbital elements
Apogee altitude
1,201.347 km
Perigee altitude
1,079 km
Semi-major axis
7,518.31 km
Eccentricity
0.00814
Inclination
99.7279°
RAAN
43.4572°
Arg. of periapsis
18.987°
True anomaly
107.10643°
Mean anomaly
106.2137°
Eccentric anomaly
106.66032°
Mean motion
3.32938 °/min
Orbital period
108.13 mins
BSTAR
0.00046399
Loading maneuver chart data...
Computing Atmospheric mass density...
Loading historical data...
Loading historical data...
Loading historical data...
Loading historical data...
Loading historical data...
Loading historical data...
Loading historical data...

Documentation

Showing up to 5 results
|